sat.trackr.live / text

‹ back to catalog

PACE-1

NORAD 48909 · 2021-059AG

PAYLOAD ACTIVE UNKNOWN

§ Identity

Operator
Country
US
Launch date
2021-06-30
Launch site
AFETR
Launch vehicle
Mass (kg)
RCS (m²)

External: N2YO · Heavens-Above · Gunter

§ Orbital elements

Epoch: 2026-09-20T21:28:28.197120Z

Period
88.58 min
Inclination
97.6642°
Eccentricity
0.0004858
Mean motion
16.25558296 rev/d
Perigee alt
201.3 km
Apogee alt
207.7 km
Semi-major
6,582.6 km
B*
6.1784e-4
RAAN
114.8299°
Arg perigee
254.7115°
Mean anomaly
105.3639°
Rev number
29,303

§ Raw data

PACE-11 48909U 21059AG  26263.89477080  .01813421  26264-5  61784-3 0  99932 48909  97.6642 114.8299 0004858 254.7115 105.3639 16.25558296293033

JSON: /api/v1/satellites/48909 · /tle

For live sub-satellite position, see the globe view (requires WebGL).

§ Visibility from observer

Set your observer location to see the next 7 days of passes ≥ 10°. The values pass through the URL so the page stays shareable.

No JS? Fill the form by hand. The geolocation button needs JavaScript.

§ Radio — SatNOGS DB

ModeDescriptionDownlinkUplink
FM S-band telemetry 2.283 GHz

1 transmitter · refreshed weekly from db.satnogs.org